weather.gov     
National Weather Service

Terminal Aerodrome Forecast
NWS Homepage
This page is being discontinued on March 12, 2014.
The same data is available at this site. Please update your bookmarks.
Thank you, and we apologize for the inconvenience.
Please send an email to SR-SRH.Webmaster@noaa.gov with any concerns.


Current Version
Previous Version:    01  02  03  04  05  06  07  08  09  10  11  12  13  14  15  16  17  18  19  20  21  22  23  24  25  26  27  28  29  30  
   31  
[Printable]
337
FTUS42 KGSP 190300 AAA
TAFAND
TAF AMD
KAND 190320Z 1903/1924 03012G18KT P6SM -RA SCT025 OVC070
     FM190430 04015G25KT P6SM RA OVC025
     FM190700 03015G26KT P6SM RA OVC008
     FM191600 05016G27KT P6SM -RA OVC015
     FM191800 05016G27KT P6SM OVC015=


U.S. Dept. of Commerce
NOAA National Weather Service
1325 East West Highway
Silver Spring, MD 20910
E-mail: w-nws.webmaster@noaa.gov
Page last modified: May 16, 2007
NATIONAL WEATHER SERVICE: for Safety, for Work, for Fun - FOR LIFE